[[{"header":{"parameterUnit":"m.s-1","parameterCategory":1,"la1":30.2991,"la2":30.254,"lo1":-89.0895,"lo2":-89.0444,"dx":0.0017,"dy":0.0017,"nx":28,"ny":28,"refTime":"2022-12-09T15:00:00:Z","depth":0,"parameterNumber":2,"parameterNumberName":"U-component_of_WINDS"},"data":[0,0,0,0,0,0,0,0,0,0,0,0,0,0,0,0,0,0,0,0,0,0,0,0,0,0,0,0,0,0,0,0,0,0,0,0,0,0,0,0,0,0,0,0,0,0,0,0,0,0,0,0,0,0,0,0,0,0,2.0055,2.0056,0,2.0084,2.0084,2.0084,2.0092,2.0092,2.0092,2.0091,2.012,2.0121,2.0122,0,0,0,0,0,0,0,0,0,0,0,0,0,2.0009,2.001,2.0055,2.0056,2.0056,2.0084,2.0084,2.0084,2.0092,2.0092,2.0091,2.0091,2.012,2.0121,2.0122,0,0,0,0,0,0,0,0,0,0,0,0,0,2.0033,2.001,2.0055,2.0063,2.0064,2.0084,2.0084,2.0084,2.0092,2.0092,2.0091,2.0091,2.0119,2.0121,2.0122,2.0136,0,0,2.0126,2.0127,0,0,0,0,0,0,0,0,2.0031,2.0034,2.0062,2.0063,2.0064,2.0084,2.0078,2.0102,2.0092,2.0081,2.0091,2.0091,2.0108,2.011,2.0116,2.0137,2.0138,2.0126,2.0127,2.0128,2.0128,0,0,0,0,0,0,0,2.003,2.0033,2.0066,2.0062,2.0063,2.0066,2.0069,2.0083,2.0096,2.0082,2.0083,2.0086,2.0109,2.0115,2.0117,2.0139,2.0126,2.0128,2.0128,2.0129,2.0175,2.0175,0,0,0,0,0,0,2.0027,2.0032,2.0066,2.0067,2.0047,2.0067,2.007,2.0078,2.0096,2.0098,2.0086,2.0086,2.0113,2.0115,2.0118,2.0137,2.0128,2.0129,2.013,2.0175,2.0175,2.0175,0,0,0,0,0,0,2.0026,2.0029,2.0064,2.005,2.0054,2.0068,2.0076,2.0078,2.0085,2.0099,2.0101,2.009,2.0113,2.0116,2.0132,2.0138,2.013,2.0131,2.0174,2.0175,2.0175,2.0173,0,0,0,0,0,0,2.0024,2.0029,2.0034,2.005,2.0055,2.0077,2.0077,2.0079,2.0087,2.0087,2.0103,2.0105,2.0113,2.013,2.0133,2.014,2.0132,2.0174,2.0174,2.0175,2.0173,2.0174,2.0175,0,0,0,0,0,2.0022,2.0031,2.0034,2.0038,2.0061,2.0077,2.008,2.0089,2.0087,2.0093,2.0102,2.0105,2.0137,2.0131,2.0135,2.0142,2.0173,2.0174,2.0175,2.0173,2.0174,2.0174,0,0,0,0,0,0,2.0014,2.0033,2.0036,2.0051,2.0063,2.0079,2.0085,2.0089,2.0101,2.0101,2.0111,2.0115,2.013,2.0138,2.0131,2.0158,2.0155,2.0157,2.0152,2.0153,2.0154,2.0152,2.0133,0,0,0,0,0,2.0015,2.0026,2.0042,2.0053,2.0059,2.0071,2.0078,2.0084,2.0097,2.0102,2.0112,2.0125,2.0138,2.0146,2.0158,2.0175,2.0179,2.0182,2.0182,2.0183,2.0184,2.0196,2.0197,2.0178,2.0178,2.0178,0,0,2.0014,2.0026,2.0032,2.0052,2.0061,2.0074,2.0075,2.0087,2.0097,2.0103,2.0119,2.0128,2.0143,2.0159,2.0167,2.0166,2.0191,2.0184,2.0184,2.0185,2.0197,2.0198,2.02,2.0179,2.0179,2.0179,0,0,2.002,2.003,2.0041,2.0052,2.0067,2.0076,2.0079,2.0095,2.0101,2.0118,2.0124,2.0136,2.0157,2.0168,2.0176,2.019,2.0194,2.0194,2.0198,2.0209,2.0211,2.0212,2.0218,2.022,2.0196,2.0196,2.0196,0,2.0018,2.0036,2.0046,2.0059,2.0068,2.0076,2.0089,2.0098,2.0117,2.0123,2.0122,2.0152,2.0162,2.0182,2.0186,2.0192,2.0197,2.0192,2.021,2.0211,2.0213,2.0219,2.0221,2.0196,2.0196,2.0196,2.0196,0,2.0033,2.0047,2.0054,2.0073,2.0083,2.0095,2.0108,2.0117,2.0123,2.0133,2.0151,2.0164,2.018,2.0186,2.0191,2.0208,2.0207,2.0208,2.0205,2.0214,2.022,2.0223,2.0196,2.0196,2.0196,2.0196,0,0,2.0033,2.006,2.0062,2.0072,2.0091,2.0102,2.0116,2.0133,2.0141,2.0154,2.0167,2.0187,2.0189,2.0199,2.0206,2.0215,2.0228,2.0215,2.0216,2.0218,2.0249,2.0248,2.0251,2.0231,2.0231,2.0231,2.0248,0,2.0042,2.0066,2.0077,2.0098,2.0111,2.012,2.0133,2.0147,2.0156,2.017,2.0181,2.0195,2.0196,2.0202,2.0212,2.0224,2.0234,2.0223,2.0243,2.0244,2.0239,2.0253,2.0252,2.0267,2.025,2.0251,2.0251,0,2.0054,2.0069,2.0091,2.0111,2.0117,2.0128,2.0146,2.0158,2.0175,2.0182,2.0194,2.0202,2.0218,2.0216,2.0239,2.0232,2.0241,2.0248,2.0249,2.0251,2.0247,2.0256,2.0272,2.0274,2.0254,2.0254,2.0254,0,2.0053,2.0078,2.0095,2.0104,2.0127,2.0135,2.0145,2.0162,2.0172,2.0188,2.0196,2.0213,2.0223,2.0237,2.0249,2.0246,2.0273,2.027,2.0279,2.0279,2.0283,2.0283,2.0301,2.029,2.029,2.029,2.0289,0,2.0061,2.0075,2.0095,2.0106,2.0122,2.0135,2.0151,2.0162,2.0177,2.0191,2.02,2.0213,2.0229,2.0244,2.0254,2.0273,2.0277,2.0284,2.0286,2.0283,2.0282,2.0288,2.0288,2.029,2.029,2.029,2.029,0,2.0062,2.0076,2.0095,2.0117,2.0123,2.0134,2.0153,2.0164,2.0176,2.0193,2.0198,2.0216,2.0235,2.0249,2.0273,2.028,2.0301,2.0303,2.0295,2.0296,2.0305,2.0304,2.0327,2.0332,2.0317,2.0317,2.0317,0,2.0066,2.0077,2.01,2.0111,2.0121,2.0137,2.0148,2.0163,2.0175,2.0196,2.0205,2.0225,2.0241,2.0271,2.0287,2.0306,2.0309,2.0316,2.0312,2.0309,2.031,2.0309,2.0311,2.0316,2.0316,2.0317,2.0317,0,2.0073,2.008,2.0096,2.0115,2.0129,2.0144,2.016,2.0168,2.0186,2.0199,2.0219,2.0232,2.0257,2.0277,2.0299,2.031,2.0317,2.0318,2.0321,2.0318,2.0313,2.0317,2.0297,2.0317,2.0317,2.0317,2.0317,2.0317,2.0075,2.0086,2.0105,2.0124,2.0138,2.0153,2.0165,2.0179,2.0196,2.0218,2.0227,2.0247,2.0267,2.0296,2.0308,2.0326,2.0326,2.033,2.0331,2.0332,2.0332,2.0311,2.0329,2.0329,2.033,2.033,2.033,0,2.0083,2.0097,2.0113,2.0136,2.0151,2.0157,2.0176,2.0188,2.0206,2.0224,2.0241,2.0265,2.0285,2.0304,2.0325,2.0335,2.0339,2.034,2.034,2.0343,2.033,2.0326,2.0337,2.0337,2.0337,2.0337,2.0337,2.0337,2.0089,2.0108,2.0118,2.0145,2.0159,2.0179,2.019,2.0205,2.022,2.0246,2.0263,2.0275,2.0294,2.0318,2.0337,2.0342,2.035,2.035,2.0356,2.0344,2.0343,2.0342,2.0338,2.0352,2.0352,2.0367,2.0367,2.0368]},{"header":{"parameterUnit":"m.s-1","parameterCategory":1,"la1":30.2991,"la2":30.254,"lo1":-89.0895,"lo2":-89.0444,"dx":0.0017,"dy":0.0017,"nx":28,"ny":28,"refTime":"2022-12-09T15:00:00:Z","depth":0,"parameterNumber":3,"parameterNumberName":"V-component_of_WINDS"},"data":[0,0,0,0,0,0,0,0,0,0,0,0,0,0,0,0,0,0,0,0,0,0,0,0,0,0,0,0,0,0,0,0,0,0,0,0,0,0,0,0,0,0,0,0,0,0,0,0,0,0,0,0,0,0,0,0,0,0,-0.1082,-0.1082,0,-0.1091,-0.1091,-0.1091,-0.1105,-0.1105,-0.1106,-0.1106,-0.1115,-0.1115,-0.1115,0,0,0,0,0,0,0,0,0,0,0,0,0,-0.1078,-0.1078,-0.1082,-0.1082,-0.1082,-0.1091,-0.1091,-0.1091,-0.1105,-0.1105,-0.1106,-0.1106,-0.1115,-0.1115,-0.1114,0,0,0,0,0,0,0,0,0,0,0,0,0,-0.1083,-0.1078,-0.1082,-0.109,-0.1091,-0.1091,-0.1091,-0.1091,-0.1105,-0.1105,-0.1106,-0.1106,-0.1115,-0.1115,-0.1114,-0.1107,0,0,-0.1114,-0.1114,0,0,0,0,0,0,0,0,-0.1082,-0.1083,-0.1089,-0.109,-0.1091,-0.1097,-0.1093,-0.1096,-0.1105,-0.11,-0.1106,-0.1106,-0.1108,-0.1109,-0.111,-0.1107,-0.1107,-0.1114,-0.1114,-0.1114,-0.1114,0,0,0,0,0,0,0,-0.1082,-0.1083,-0.1086,-0.1089,-0.109,-0.1094,-0.1095,-0.1094,-0.1102,-0.11,-0.1101,-0.1102,-0.1109,-0.111,-0.111,-0.1108,-0.1114,-0.1114,-0.1114,-0.1114,-0.11,-0.11,0,0,0,0,0,0,-0.1081,-0.1082,-0.1085,-0.1086,-0.1088,-0.1094,-0.1095,-0.1095,-0.1102,-0.1103,-0.1102,-0.1103,-0.111,-0.111,-0.111,-0.1102,-0.1114,-0.1114,-0.1114,-0.1101,-0.11,-0.11,0,0,0,0,0,0,-0.108,-0.1081,-0.1085,-0.1084,-0.1085,-0.1093,-0.1093,-0.1095,-0.1096,-0.1103,-0.1105,-0.1101,-0.111,-0.111,-0.1108,-0.1103,-0.1114,-0.1114,-0.1101,-0.1101,-0.11,-0.1086,0,0,0,0,0,0,-0.108,-0.1081,-0.1077,-0.1084,-0.1085,-0.1082,-0.1093,-0.1095,-0.1096,-0.1097,-0.1103,-0.1104,-0.111,-0.1108,-0.1108,-0.1103,-0.1114,-0.1102,-0.1101,-0.11,-0.1087,-0.1085,-0.1083,0,0,0,0,0,-0.108,-0.1073,-0.1077,-0.1077,-0.1081,-0.1082,-0.1082,-0.1089,-0.1095,-0.1092,-0.1097,-0.1104,-0.1104,-0.1107,-0.1108,-0.1103,-0.1102,-0.1101,-0.11,-0.1088,-0.1085,-0.1083,0,0,0,0,0,0,-0.1065,-0.1074,-0.1079,-0.1073,-0.1077,-0.1084,-0.108,-0.1087,-0.1088,-0.1089,-0.1099,-0.11,-0.1096,-0.1099,-0.1103,-0.1096,-0.1104,-0.1103,-0.1094,-0.1092,-0.109,-0.109,-0.1114,0,0,0,0,0,-0.1061,-0.106,-0.1068,-0.1063,-0.1064,-0.1072,-0.1072,-0.1078,-0.1082,-0.1083,-0.1088,-0.1091,-0.1092,-0.1092,-0.1093,-0.1088,-0.109,-0.1085,-0.1083,-0.1081,-0.108,-0.1079,-0.1077,-0.1097,-0.1097,-0.1097,0,0,-0.1052,-0.1057,-0.1056,-0.106,-0.1063,-0.1062,-0.1073,-0.1072,-0.1071,-0.1083,-0.1081,-0.1085,-0.1089,-0.1085,-0.1084,-0.1088,-0.1075,-0.108,-0.1079,-0.1079,-0.1078,-0.1076,-0.1074,-0.1097,-0.1097,-0.1097,0,0,-0.1037,-0.104,-0.1036,-0.104,-0.1045,-0.105,-0.105,-0.1056,-0.1059,-0.1058,-0.1066,-0.1067,-0.1067,-0.1071,-0.1072,-0.106,-0.1066,-0.106,-0.1051,-0.1049,-0.1047,-0.1046,-0.1042,-0.104,-0.1059,-0.1059,-0.1059,0,-0.1026,-0.1025,-0.1034,-0.1032,-0.1034,-0.1045,-0.1041,-0.1044,-0.1049,-0.105,-0.1055,-0.1057,-0.1061,-0.1058,-0.1055,-0.1056,-0.1056,-0.1059,-0.1047,-0.1046,-0.1044,-0.1041,-0.1039,-0.1058,-0.1058,-0.1059,-0.1059,0,-0.1011,-0.1011,-0.1007,-0.1013,-0.1014,-0.1011,-0.102,-0.102,-0.1026,-0.1031,-0.103,-0.1035,-0.1038,-0.1038,-0.1043,-0.1037,-0.1039,-0.1045,-0.1053,-0.1042,-0.1038,-0.1037,-0.1057,-0.1058,-0.1058,-0.1058,0,0,-0.0985,-0.0996,-0.0995,-0.0998,-0.1005,-0.1005,-0.1003,-0.1006,-0.1007,-0.101,-0.101,-0.1011,-0.1017,-0.1019,-0.1025,-0.1024,-0.1014,-0.103,-0.103,-0.1027,-0.1008,-0.1004,-0.1002,-0.1019,-0.1019,-0.1019,-0.1008,0,-0.0971,-0.0969,-0.0978,-0.0973,-0.0974,-0.0985,-0.0984,-0.0988,-0.0993,-0.0995,-0.1,-0.1002,-0.1009,-0.1011,-0.101,-0.1016,-0.1011,-0.1017,-0.1019,-0.1019,-0.1017,-0.1,-0.0995,-0.0985,-0.1007,-0.1007,-0.1006,0,-0.0954,-0.0958,-0.0954,-0.0962,-0.0962,-0.0961,-0.0965,-0.0966,-0.0972,-0.0976,-0.0979,-0.0986,-0.0986,-0.0994,-0.0994,-0.0998,-0.1,-0.1003,-0.1003,-0.1003,-0.1012,-0.1,-0.0981,-0.098,-0.1004,-0.1005,-0.1005,0,-0.0936,-0.094,-0.0938,-0.094,-0.095,-0.0949,-0.0953,-0.0959,-0.0961,-0.0965,-0.0966,-0.097,-0.0972,-0.0975,-0.0983,-0.0988,-0.0983,-0.0991,-0.0987,-0.0986,-0.0985,-0.0984,-0.0966,-0.0986,-0.0986,-0.0986,-0.0986,0,-0.092,-0.0917,-0.093,-0.0929,-0.0927,-0.0937,-0.0934,-0.0939,-0.0945,-0.0945,-0.0955,-0.0956,-0.0967,-0.0969,-0.0976,-0.0975,-0.0976,-0.098,-0.0982,-0.0979,-0.0978,-0.098,-0.0981,-0.0985,-0.0985,-0.0985,-0.0985,0,-0.0899,-0.0908,-0.0907,-0.0916,-0.0919,-0.0916,-0.0925,-0.0925,-0.0931,-0.0932,-0.0932,-0.0942,-0.0945,-0.0954,-0.0959,-0.0964,-0.0962,-0.0965,-0.096,-0.0961,-0.0956,-0.0957,-0.0938,-0.0936,-0.0956,-0.0956,-0.0956,0,-0.0888,-0.0886,-0.0896,-0.0897,-0.0901,-0.0902,-0.0904,-0.0915,-0.0917,-0.0924,-0.0923,-0.0927,-0.093,-0.0934,-0.0942,-0.0947,-0.095,-0.0943,-0.0951,-0.0949,-0.0951,-0.0951,-0.0951,-0.0942,-0.0941,-0.0941,-0.0941,0,-0.0867,-0.0872,-0.0874,-0.0879,-0.0881,-0.0885,-0.089,-0.089,-0.0902,-0.0904,-0.0907,-0.091,-0.0916,-0.0919,-0.0925,-0.093,-0.0938,-0.0939,-0.0938,-0.0935,-0.0932,-0.0934,-0.0955,-0.0939,-0.0939,-0.0939,-0.0939,-0.0939,-0.0851,-0.085,-0.0857,-0.086,-0.0865,-0.0869,-0.087,-0.0877,-0.088,-0.0885,-0.0891,-0.0894,-0.0901,-0.091,-0.0914,-0.0917,-0.0921,-0.092,-0.0919,-0.0919,-0.0918,-0.0932,-0.0918,-0.0918,-0.0918,-0.0918,-0.0918,0,-0.0831,-0.0837,-0.0839,-0.0846,-0.0848,-0.0856,-0.0862,-0.0863,-0.0866,-0.0872,-0.0875,-0.088,-0.0884,-0.0893,-0.0898,-0.0898,-0.0902,-0.0899,-0.09,-0.0901,-0.0914,-0.0914,-0.0896,-0.0896,-0.0896,-0.0896,-0.0896,-0.0896,-0.0821,-0.0821,-0.0827,-0.0829,-0.0835,-0.0837,-0.084,-0.0845,-0.085,-0.0854,-0.0858,-0.0864,-0.0871,-0.0877,-0.0882,-0.0884,-0.0886,-0.0882,-0.0886,-0.0898,-0.09,-0.0902,-0.0902,-0.0882,-0.0882,-0.0873,-0.0872,-0.0872]}]]